iso_date,epoch_date,Year,Hour,Min,DOY,POS_DOY,Lat,Lon,BP,Ts,Ta,has_bp,has_ts,has_ta,BuoyID,Buoy_Type,Buoy_Owner,Logistics,Hemisphere
2021-08-18T23:33:56Z,1629329636,2021,23,34,230.9819,230.9819,70.06422,-52.36087,-999.00,-999.00,-999.0,no,no,no,4435260,SPIT,USIABP,ICE-PPR<br>DiskoBay,North
2021-08-19T00:05:02Z,1629331502,2021,0,5,231.0035,231.0035,70.0643,-52.36044,-999.00,-999.00,-999.0,no,no,no,4435260,SPIT,USIABP,ICE-PPR<br>DiskoBay,North
2021-08-19T00:32:58Z,1629333179,2021,0,33,231.0229,231.0229,70.06452,-52.36007,-999.00,-999.00,-999.0,no,no,no,4435260,SPIT,USIABP,ICE-PPR<br>DiskoBay,North
2021-08-19T01:02:55Z,1629334976,2021,1,3,231.0437,231.0437,70.06431,-52.36041,-999.00,-999.00,-999.0,no,no,no,4435260,SPIT,USIABP,ICE-PPR<br>DiskoBay,North
2021-08-19T01:34:01Z,1629336842,2021,1,34,231.0653,231.0653,70.06422,-52.36139,-999.00,-999.00,-999.0,no,no,no,4435260,SPIT,USIABP,ICE-PPR<br>DiskoBay,North
2021-08-19T02:02:58Z,1629338579,2021,2,3,231.0854,231.0854,70.06438,-52.36102,-999.00,-999.00,-999.0,no,no,no,4435260,SPIT,USIABP,ICE-PPR<br>DiskoBay,North
2021-08-19T02:33:56Z,1629340436,2021,2,34,231.1069,231.1069,70.0646,-52.36059,-999.00,-999.00,-999.0,no,no,no,4435260,SPIT,USIABP,ICE-PPR<br>DiskoBay,North
2021-08-19T03:04:01Z,1629342242,2021,3,4,231.1278,231.1278,70.06447,-52.36059,-999.00,-999.00,-999.0,no,no,no,4435260,SPIT,USIABP,ICE-PPR<br>DiskoBay,North
2021-08-19T03:33:59Z,1629344039,2021,3,34,231.1486,231.1486,70.06451,-52.3605,-999.00,-999.00,-999.0,no,no,no,4435260,SPIT,USIABP,ICE-PPR<br>DiskoBay,North
2021-08-19T04:33:01Z,1629347581,2021,4,33,231.1896,231.1896,70.06446,-52.36052,-999.00,-999.00,-999.0,no,no,no,4435260,SPIT,USIABP,ICE-PPR<br>DiskoBay,North
2021-08-19T05:02:58Z,1629349379,2021,5,3,231.2104,231.2104,70.06429,-52.36069,-999.00,-999.00,-999.0,no,no,no,4435260,SPIT,USIABP,ICE-PPR<br>DiskoBay,North
2021-08-19T05:33:04Z,1629351184,2021,5,33,231.2313,231.2313,70.06425,-52.36069,-999.00,-999.00,-999.0,no,no,no,4435260,SPIT,USIABP,ICE-PPR<br>DiskoBay,North
2021-08-19T06:06:02Z,1629353163,2021,6,6,231.2542,231.2542,70.0643,-52.35989,-999.00,-999.00,-999.0,no,no,no,4435260,SPIT,USIABP,ICE-PPR<br>DiskoBay,North
2021-08-19T08:31:03Z,1629361863,2021,8,31,231.3549,231.3549,70.06417,-52.36006,-999.00,-999.00,-999.0,no,no,no,4435260,SPIT,USIABP,ICE-PPR<br>DiskoBay,North
2021-08-19T09:01:00Z,1629363660,2021,9,1,231.3757,231.3757,70.06444,-52.3598,-999.00,-999.00,-999.0,no,no,no,4435260,SPIT,USIABP,ICE-PPR<br>DiskoBay,North
2021-08-19T09:30:57Z,1629365458,2021,9,31,231.3965,231.3965,70.06417,-52.36066,-999.00,-999.00,-999.0,no,no,no,4435260,SPIT,USIABP,ICE-PPR<br>DiskoBay,North
2021-08-19T10:00:02Z,1629367203,2021,10,0,231.4167,231.4167,70.06435,-52.36005,-999.00,-999.00,-999.0,no,no,no,4435260,SPIT,USIABP,ICE-PPR<br>DiskoBay,North
2021-08-19T12:00:00Z,1629374400,2021,12,0,231.5,231.5,70.06317,-52.39338,-999.00,-999.00,-999.0,no,no,no,4435260,SPIT,USIABP,ICE-PPR<br>DiskoBay,North
2021-08-19T12:29:57Z,1629376197,2021,12,30,231.5208,231.5208,70.06077,-52.45415,-999.00,-999.00,-999.0,no,no,no,4435260,SPIT,USIABP,ICE-PPR<br>DiskoBay,North
2021-08-19T13:00:02Z,1629378003,2021,13,0,231.5417,231.5417,70.07402,-52.57474,-999.00,-999.00,-999.0,no,no,no,4435260,SPIT,USIABP,ICE-PPR<br>DiskoBay,North
2021-08-19T16:28:59Z,1629390540,2021,16,29,231.6868,231.6868,70.31865,-53.80347,-999.00,-999.00,-999.0,no,no,no,4435260,SPIT,USIABP,ICE-PPR<br>DiskoBay,North
2021-08-19T16:59:57Z,1629392397,2021,17,0,231.7083,231.7083,70.31752,-53.81152,-999.00,-999.00,-999.0,no,no,no,4435260,SPIT,USIABP,ICE-PPR<br>DiskoBay,North
2021-08-19T18:59:02Z,1629399542,2021,18,59,231.791,231.791,70.19584,-52.86488,-999.00,-999.00,-999.0,no,no,no,4435260,SPIT,USIABP,ICE-PPR<br>DiskoBay,North
2021-08-19T19:28:59Z,1629401340,2021,19,29,231.8118,231.8118,70.11906,-52.73802,-999.00,-999.00,-999.0,no,no,no,4435260,SPIT,USIABP,ICE-PPR<br>DiskoBay,North
2021-08-19T19:58:56Z,1629403137,2021,19,59,231.8326,231.8326,70.07623,-52.51031,-999.00,-999.00,-999.0,no,no,no,4435260,SPIT,USIABP,ICE-PPR<br>DiskoBay,North
2021-08-19T21:27:56Z,1629408476,2021,21,28,231.8944,231.8944,70.06591,-52.36525,-999.00,-999.00,-999.0,no,no,no,4435260,SPIT,USIABP,ICE-PPR<br>DiskoBay,North
2021-08-19T21:58:01Z,1629410282,2021,21,58,231.9153,231.9153,70.06647,-52.36371,-999.00,-999.00,-999.0,no,no,no,4435260,SPIT,USIABP,ICE-PPR<br>DiskoBay,North
2021-08-19T22:27:59Z,1629412079,2021,22,28,231.9361,231.9361,70.06613,-52.3656,-999.00,-999.00,-999.0,no,no,no,4435260,SPIT,USIABP,ICE-PPR<br>DiskoBay,North
2021-08-19T22:57:56Z,1629413876,2021,22,58,231.9569,231.9569,70.06644,-52.36372,-999.00,-999.00,-999.0,no,no,no,4435260,SPIT,USIABP,ICE-PPR<br>DiskoBay,North
2021-08-19T23:28:01Z,1629415682,2021,23,28,231.9778,231.9778,70.06596,-52.36484,-999.00,-999.00,-999.0,no,no,no,4435260,SPIT,USIABP,ICE-PPR<br>DiskoBay,North
2021-08-20T01:27:59Z,1629422879,2021,1,28,232.0611,232.0611,70.06545,-52.36259,-999.00,-999.00,-999.0,no,no,no,4435260,SPIT,USIABP,ICE-PPR<br>DiskoBay,North
2021-08-20T01:57:56Z,1629424676,2021,1,58,232.0819,232.0819,70.06515,-52.36353,-999.00,-999.00,-999.0,no,no,no,4435260,SPIT,USIABP,ICE-PPR<br>DiskoBay,North
2021-08-20T02:27:01Z,1629426421,2021,2,27,232.1021,232.1021,70.06515,-52.36411,-999.00,-999.00,-999.0,no,no,no,4435260,SPIT,USIABP,ICE-PPR<br>DiskoBay,North
2021-08-20T02:57:59Z,1629428279,2021,2,58,232.1236,232.1236,70.0651,-52.36371,-999.00,-999.00,-999.0,no,no,no,4435260,SPIT,USIABP,ICE-PPR<br>DiskoBay,North
2021-08-20T03:27:04Z,1629430024,2021,3,27,232.1438,232.1438,70.0652,-52.36346,-999.00,-999.00,-999.0,no,no,no,4435260,SPIT,USIABP,ICE-PPR<br>DiskoBay,North
2021-08-20T03:57:01Z,1629431821,2021,3,57,232.1646,232.1646,70.06522,-52.36313,-999.00,-999.00,-999.0,no,no,no,4435260,SPIT,USIABP,ICE-PPR<br>DiskoBay,North
2021-08-20T04:26:58Z,1629433619,2021,4,27,232.1854,232.1854,70.06489,-52.35944,-999.00,-999.00,-999.0,no,no,no,4435260,SPIT,USIABP,ICE-PPR<br>DiskoBay,North
2021-08-20T04:56:03Z,1629435364,2021,4,56,232.2056,232.2056,70.06483,-52.35971,-999.00,-999.00,-999.0,no,no,no,4435260,SPIT,USIABP,ICE-PPR<br>DiskoBay,North
2021-08-20T05:26:00Z,1629437161,2021,5,26,232.2264,232.2264,70.06483,-52.35971,-999.00,-999.00,-999.0,no,no,no,4435260,SPIT,USIABP,ICE-PPR<br>DiskoBay,North
2021-08-20T07:56:03Z,1629446164,2021,7,56,232.3306,232.3306,70.06458,-52.36053,-999.00,-999.00,-999.0,no,no,no,4435260,SPIT,USIABP,ICE-PPR<br>DiskoBay,North
2021-08-20T08:26:00Z,1629447961,2021,8,26,232.3514,232.3514,70.0647,-52.36001,-999.00,-999.00,-999.0,no,no,no,4435260,SPIT,USIABP,ICE-PPR<br>DiskoBay,North
2021-08-20T08:55:58Z,1629449758,2021,8,56,232.3722,232.3722,70.06487,-52.36035,-999.00,-999.00,-999.0,no,no,no,4435260,SPIT,USIABP,ICE-PPR<br>DiskoBay,North
2021-08-20T09:26:03Z,1629451564,2021,9,26,232.3931,232.3931,70.06487,-52.3624,-999.00,-999.00,-999.0,no,no,no,4435260,SPIT,USIABP,ICE-PPR<br>DiskoBay,North
2021-08-20T14:26:00Z,1629469561,2021,14,26,232.6014,232.6014,69.97208,-52.33865,-999.00,-999.00,-999.0,no,no,no,4435260,SPIT,USIABP,ICE-PPR<br>DiskoBay,North
2021-08-20T17:25:00Z,1629480300,2021,17,25,232.7257,232.7257,69.97771,-52.40261,-999.00,-999.00,-999.0,no,no,no,4435260,SPIT,USIABP,ICE-PPR<br>DiskoBay,North
2021-08-20T17:54:57Z,1629482098,2021,17,55,232.7465,232.7465,69.97895,-52.40973,-999.00,-999.00,-999.0,no,no,no,4435260,SPIT,USIABP,ICE-PPR<br>DiskoBay,North
2021-08-20T19:24:57Z,1629487498,2021,19,25,232.809,232.809,69.98018,-52.423,-999.00,-999.00,-999.0,no,no,no,4435260,SPIT,USIABP,ICE-PPR<br>DiskoBay,North
2021-08-20T19:55:03Z,1629489303,2021,19,55,232.8299,232.8299,69.98045,-52.42712,-999.00,-999.00,-999.0,no,no,no,4435260,SPIT,USIABP,ICE-PPR<br>DiskoBay,North
2021-08-20T20:24:00Z,1629491040,2021,20,24,232.85,232.85,69.98063,-52.43176,-999.00,-999.00,-999.0,no,no,no,4435260,SPIT,USIABP,ICE-PPR<br>DiskoBay,North
2021-08-20T20:53:57Z,1629492837,2021,20,54,232.8708,232.8708,69.98108,-52.43856,-999.00,-999.00,-999.0,no,no,no,4435260,SPIT,USIABP,ICE-PPR<br>DiskoBay,North
2021-08-20T21:24:02Z,1629494643,2021,21,24,232.8917,232.8917,69.98172,-52.44611,-999.00,-999.00,-999.0,no,no,no,4435260,SPIT,USIABP,ICE-PPR<br>DiskoBay,North
2021-08-21T06:52:59Z,1629528780,2021,6,53,233.2868,233.2868,70.02285,-52.62943,-999.00,-999.00,-999.0,no,no,no,4435260,SPIT,USIABP,ICE-PPR<br>DiskoBay,North
2021-08-21T10:21:56Z,1629541316,2021,10,22,233.4319,233.4319,70.02383,-52.63065,-999.00,-999.00,-999.0,no,no,no,4435260,SPIT,USIABP,ICE-PPR<br>DiskoBay,North
2021-08-21T12:22:01Z,1629548522,2021,12,22,233.5153,233.5153,70.02885,-52.64728,-999.00,-999.00,-999.0,no,no,no,4435260,SPIT,USIABP,ICE-PPR<br>DiskoBay,North
2021-08-21T12:51:59Z,1629550319,2021,12,52,233.5361,233.5361,70.03068,-52.65424,-999.00,-999.00,-999.0,no,no,no,4435260,SPIT,USIABP,ICE-PPR<br>DiskoBay,North
2021-08-21T13:21:56Z,1629552116,2021,13,22,233.5569,233.5569,70.03295,-52.66128,-999.00,-999.00,-999.0,no,no,no,4435260,SPIT,USIABP,ICE-PPR<br>DiskoBay,North
2021-08-21T13:52:01Z,1629553922,2021,13,52,233.5778,233.5778,70.03561,-52.66806,-999.00,-999.00,-999.0,no,no,no,4435260,SPIT,USIABP,ICE-PPR<br>DiskoBay,North
2021-08-21T14:51:56Z,1629557516,2021,14,52,233.6194,233.6194,70.03958,-52.67584,-999.00,-999.00,-999.0,no,no,no,4435260,SPIT,USIABP,ICE-PPR<br>DiskoBay,North
2021-08-21T15:22:01Z,1629559322,2021,15,22,233.6403,233.6403,70.0413,-52.67867,-999.00,-999.00,-999.0,no,no,no,4435260,SPIT,USIABP,ICE-PPR<br>DiskoBay,North
2021-08-21T15:51:59Z,1629561119,2021,15,52,233.6611,233.6611,70.04246,-52.67996,-999.00,-999.00,-999.0,no,no,no,4435260,SPIT,USIABP,ICE-PPR<br>DiskoBay,North
2021-08-21T18:20:00Z,1629570001,2021,18,20,233.7639,233.7639,70.04344,-52.68106,-999.00,-999.00,-999.0,no,no,no,4435260,SPIT,USIABP,ICE-PPR<br>DiskoBay,North
2021-08-21T19:20:03Z,1629573604,2021,19,20,233.8056,233.8056,70.04327,-52.67566,-999.00,-999.00,-999.0,no,no,no,4435260,SPIT,USIABP,ICE-PPR<br>DiskoBay,North
2021-08-21T19:50:00Z,1629575401,2021,19,50,233.8264,233.8264,70.04288,-52.67261,-999.00,-999.00,-999.0,no,no,no,4435260,SPIT,USIABP,ICE-PPR<br>DiskoBay,North
2021-08-21T20:19:58Z,1629577198,2021,20,20,233.8472,233.8472,70.04284,-52.67029,-999.00,-999.00,-999.0,no,no,no,4435260,SPIT,USIABP,ICE-PPR<br>DiskoBay,North
2021-08-21T20:50:03Z,1629579004,2021,20,50,233.8681,233.8681,70.0431,-52.67029,-999.00,-999.00,-999.0,no,no,no,4435260,SPIT,USIABP,ICE-PPR<br>DiskoBay,North
2021-08-21T22:50:00Z,1629586201,2021,22,50,233.9514,233.9514,70.0494,-52.67712,-999.00,-999.00,-999.0,no,no,no,4435260,SPIT,USIABP,ICE-PPR<br>DiskoBay,North
2021-08-22T00:49:58Z,1629593398,2021,0,50,234.0347,234.0347,70.06304,-52.70204,-999.00,-999.00,-999.0,no,no,no,4435260,SPIT,USIABP,ICE-PPR<br>DiskoBay,North
2021-08-22T01:20:03Z,1629595204,2021,1,20,234.0556,234.0556,70.06707,-52.70976,-999.00,-999.00,-999.0,no,no,no,4435260,SPIT,USIABP,ICE-PPR<br>DiskoBay,North
2021-08-22T01:50:00Z,1629597001,2021,1,50,234.0764,234.0764,70.07132,-52.71783,-999.00,-999.00,-999.0,no,no,no,4435260,SPIT,USIABP,ICE-PPR<br>DiskoBay,North
2021-08-22T02:18:57Z,1629598738,2021,2,19,234.0965,234.0965,70.07546,-52.7258,-999.00,-999.00,-999.0,no,no,no,4435260,SPIT,USIABP,ICE-PPR<br>DiskoBay,North
2021-08-22T02:49:03Z,1629600543,2021,2,49,234.1174,234.1174,70.07962,-52.73395,-999.00,-999.00,-999.0,no,no,no,4435260,SPIT,USIABP,ICE-PPR<br>DiskoBay,North
2021-08-22T03:48:57Z,1629604138,2021,3,49,234.159,234.159,70.08556,-52.74654,-999.00,-999.00,-999.0,no,no,no,4435260,SPIT,USIABP,ICE-PPR<br>DiskoBay,North
2021-08-22T04:19:03Z,1629605943,2021,4,19,234.1799,234.1799,70.08745,-52.75055,-999.00,-999.00,-999.0,no,no,no,4435260,SPIT,USIABP,ICE-PPR<br>DiskoBay,North
2021-08-22T04:49:00Z,1629607740,2021,4,49,234.2007,234.2007,70.08899,-52.75366,-999.00,-999.00,-999.0,no,no,no,4435260,SPIT,USIABP,ICE-PPR<br>DiskoBay,North
2021-08-22T06:48:57Z,1629614938,2021,6,49,234.284,234.284,70.09379,-52.75105,-999.00,-999.00,-999.0,no,no,no,4435260,SPIT,USIABP,ICE-PPR<br>DiskoBay,North
2021-08-22T07:19:03Z,1629616743,2021,7,19,234.3049,234.3049,70.09413,-52.7441,-999.00,-999.00,-999.0,no,no,no,4435260,SPIT,USIABP,ICE-PPR<br>DiskoBay,North
2021-08-22T07:49:00Z,1629618540,2021,7,49,234.3257,234.3257,70.0937,-52.73492,-999.00,-999.00,-999.0,no,no,no,4435260,SPIT,USIABP,ICE-PPR<br>DiskoBay,North
2021-08-22T08:17:57Z,1629620277,2021,8,18,234.3458,234.3458,70.09323,-52.72403,-999.00,-999.00,-999.0,no,no,no,4435260,SPIT,USIABP,ICE-PPR<br>DiskoBay,North
2021-08-22T08:48:02Z,1629622083,2021,8,48,234.3667,234.3667,70.09206,-52.71335,-999.00,-999.00,-999.0,no,no,no,4435260,SPIT,USIABP,ICE-PPR<br>DiskoBay,North
2021-08-22T09:18:00Z,1629623880,2021,9,18,234.3875,234.3875,70.09129,-52.70417,-999.00,-999.00,-999.0,no,no,no,4435260,SPIT,USIABP,ICE-PPR<br>DiskoBay,North
2021-08-22T09:47:57Z,1629625677,2021,9,48,234.4083,234.4083,70.0909,-52.69559,-999.00,-999.00,-999.0,no,no,no,4435260,SPIT,USIABP,ICE-PPR<br>DiskoBay,North
2021-08-22T10:18:02Z,1629627483,2021,10,18,234.4292,234.4292,70.09026,-52.68646,-999.00,-999.00,-999.0,no,no,no,4435260,SPIT,USIABP,ICE-PPR<br>DiskoBay,North
2021-08-22T15:16:59Z,1629645420,2021,15,17,234.6368,234.6368,70.10239,-52.70056,-999.00,-999.00,-999.0,no,no,no,4435260,SPIT,USIABP,ICE-PPR<br>DiskoBay,North
2021-08-22T15:46:56Z,1629647217,2021,15,47,234.6576,234.6576,70.10527,-52.70575,-999.00,-999.00,-999.0,no,no,no,4435260,SPIT,USIABP,ICE-PPR<br>DiskoBay,North
2021-08-22T16:17:02Z,1629649022,2021,16,17,234.6785,234.6785,70.10742,-52.70661,-999.00,-999.00,-999.0,no,no,no,4435260,SPIT,USIABP,ICE-PPR<br>DiskoBay,North
2021-08-22T16:46:59Z,1629650820,2021,16,47,234.6993,234.6993,70.10952,-52.70712,-999.00,-999.00,-999.0,no,no,no,4435260,SPIT,USIABP,ICE-PPR<br>DiskoBay,North
2021-08-22T17:15:56Z,1629652556,2021,17,16,234.7194,234.7194,70.11078,-52.70473,-999.00,-999.00,-999.0,no,no,no,4435260,SPIT,USIABP,ICE-PPR<br>DiskoBay,North
2021-08-22T17:46:01Z,1629654362,2021,17,46,234.7403,234.7403,70.11138,-52.69889,-999.00,-999.00,-999.0,no,no,no,4435260,SPIT,USIABP,ICE-PPR<br>DiskoBay,North
2021-08-22T18:15:59Z,1629656159,2021,18,16,234.7611,234.7611,70.11108,-52.69125,-999.00,-999.00,-999.0,no,no,no,4435260,SPIT,USIABP,ICE-PPR<br>DiskoBay,North
2021-08-22T18:46:56Z,1629658017,2021,18,47,234.7826,234.7826,70.11022,-52.68378,-999.00,-999.00,-999.0,no,no,no,4435260,SPIT,USIABP,ICE-PPR<br>DiskoBay,North
2021-08-22T22:45:59Z,1629672359,2021,22,46,234.9486,234.9486,70.10484,-52.63562,-999.00,-999.00,-999.0,no,no,no,4435260,SPIT,USIABP,ICE-PPR<br>DiskoBay,North
2021-08-23T00:15:59Z,1629677759,2021,0,16,235.0111,235.0111,70.10935,-52.63612,-999.00,-999.00,-999.0,no,no,no,4435260,SPIT,USIABP,ICE-PPR<br>DiskoBay,North
2021-08-23T00:45:56Z,1629679556,2021,0,46,235.0319,235.0319,70.11167,-52.63895,-999.00,-999.00,-999.0,no,no,no,4435260,SPIT,USIABP,ICE-PPR<br>DiskoBay,North
2021-08-23T01:16:01Z,1629681362,2021,1,16,235.0528,235.0528,70.11433,-52.64221,-999.00,-999.00,-999.0,no,no,no,4435260,SPIT,USIABP,ICE-PPR<br>DiskoBay,North
2021-08-23T01:45:59Z,1629683159,2021,1,46,235.0736,235.0736,70.11723,-52.64737,-999.00,-999.00,-999.0,no,no,no,4435260,SPIT,USIABP,ICE-PPR<br>DiskoBay,North
2021-08-23T02:15:56Z,1629684956,2021,2,16,235.0944,235.0944,70.12041,-52.65375,-999.00,-999.00,-999.0,no,no,no,4435260,SPIT,USIABP,ICE-PPR<br>DiskoBay,North
2021-08-23T02:46:01Z,1629686762,2021,2,46,235.1153,235.1153,70.12376,-52.66013,-999.00,-999.00,-999.0,no,no,no,4435260,SPIT,USIABP,ICE-PPR<br>DiskoBay,North
2021-08-23T03:15:59Z,1629688559,2021,3,16,235.1361,235.1361,70.12694,-52.66528,-999.00,-999.00,-999.0,no,no,no,4435260,SPIT,USIABP,ICE-PPR<br>DiskoBay,North
2021-08-23T03:45:56Z,1629690356,2021,3,46,235.1569,235.1569,70.12963,-52.66949,-999.00,-999.00,-999.0,no,no,no,4435260,SPIT,USIABP,ICE-PPR<br>DiskoBay,North
2021-08-23T04:15:01Z,1629692101,2021,4,15,235.1771,235.1771,70.13148,-52.67355,-999.00,-999.00,-999.0,no,no,no,4435260,SPIT,USIABP,ICE-PPR<br>DiskoBay,North
2021-08-23T04:44:58Z,1629693899,2021,4,45,235.1979,235.1979,70.13293,-52.67596,-999.00,-999.00,-999.0,no,no,no,4435260,SPIT,USIABP,ICE-PPR<br>DiskoBay,North
2021-08-23T05:15:04Z,1629695704,2021,5,15,235.2188,235.2188,70.1337,-52.6769,-999.00,-999.00,-999.0,no,no,no,4435260,SPIT,USIABP,ICE-PPR<br>DiskoBay,North
2021-08-23T05:45:01Z,1629697501,2021,5,45,235.2396,235.2396,70.13357,-52.67819,-999.00,-999.00,-999.0,no,no,no,4435260,SPIT,USIABP,ICE-PPR<br>DiskoBay,North
2021-08-23T08:15:04Z,1629706504,2021,8,15,235.3438,235.3438,70.12766,-52.65985,-999.00,-999.00,-999.0,no,no,no,4435260,SPIT,USIABP,ICE-PPR<br>DiskoBay,North
2021-08-23T08:45:01Z,1629708301,2021,8,45,235.3646,235.3646,70.12526,-52.6529,-999.00,-999.00,-999.0,no,no,no,4435260,SPIT,USIABP,ICE-PPR<br>DiskoBay,North
2021-08-23T09:14:58Z,1629710099,2021,9,15,235.3854,235.3854,70.1229,-52.64621,-999.00,-999.00,-999.0,no,no,no,4435260,SPIT,USIABP,ICE-PPR<br>DiskoBay,North
2021-08-23T09:44:55Z,1629711896,2021,9,45,235.4062,235.4062,70.12056,-52.63904,-999.00,-999.00,-999.0,no,no,no,4435260,SPIT,USIABP,ICE-PPR<br>DiskoBay,North
2021-08-23T10:15:01Z,1629713701,2021,10,15,235.4271,235.4271,70.11833,-52.63286,-999.00,-999.00,-999.0,no,no,no,4435260,SPIT,USIABP,ICE-PPR<br>DiskoBay,North
2021-08-23T10:44:58Z,1629715499,2021,10,45,235.4479,235.4479,70.11636,-52.62668,-999.00,-999.00,-999.0,no,no,no,4435260,SPIT,USIABP,ICE-PPR<br>DiskoBay,North
2021-08-23T11:14:03Z,1629717244,2021,11,14,235.4681,235.4681,70.11445,-52.62241,-999.00,-999.00,-999.0,no,no,no,4435260,SPIT,USIABP,ICE-PPR<br>DiskoBay,North
2021-08-23T11:45:01Z,1629719101,2021,11,45,235.4896,235.4896,70.11237,-52.61935,-999.00,-999.00,-999.0,no,no,no,4435260,SPIT,USIABP,ICE-PPR<br>DiskoBay,North
2021-08-23T12:13:58Z,1629720838,2021,12,14,235.5097,235.5097,70.11063,-52.61866,-999.00,-999.00,-999.0,no,no,no,4435260,SPIT,USIABP,ICE-PPR<br>DiskoBay,North
2021-08-23T12:44:03Z,1629722644,2021,12,44,235.5306,235.5306,70.11024,-52.62106,-999.00,-999.00,-999.0,no,no,no,4435260,SPIT,USIABP,ICE-PPR<br>DiskoBay,North
2021-08-23T13:14:00Z,1629724441,2021,13,14,235.5514,235.5514,70.11057,-52.62595,-999.00,-999.00,-999.0,no,no,no,4435260,SPIT,USIABP,ICE-PPR<br>DiskoBay,North
2021-08-23T13:43:58Z,1629726238,2021,13,44,235.5722,235.5722,70.11147,-52.6329,-999.00,-999.00,-999.0,no,no,no,4435260,SPIT,USIABP,ICE-PPR<br>DiskoBay,North
2021-08-23T14:14:03Z,1629728044,2021,14,14,235.5931,235.5931,70.1131,-52.64109,-999.00,-999.00,-999.0,no,no,no,4435260,SPIT,USIABP,ICE-PPR<br>DiskoBay,North
2021-08-23T14:44:00Z,1629729841,2021,14,44,235.6139,235.6139,70.11579,-52.65079,-999.00,-999.00,-999.0,no,no,no,4435260,SPIT,USIABP,ICE-PPR<br>DiskoBay,North
2021-08-23T16:43:58Z,1629737038,2021,16,44,235.6972,235.6972,70.12759,-52.67959,-999.00,-999.00,-999.0,no,no,no,4435260,SPIT,USIABP,ICE-PPR<br>DiskoBay,North
2021-08-23T17:14:03Z,1629738844,2021,17,14,235.7181,235.7181,70.12969,-52.6838,-999.00,-999.00,-999.0,no,no,no,4435260,SPIT,USIABP,ICE-PPR<br>DiskoBay,North
2021-08-23T17:44:00Z,1629740641,2021,17,44,235.7389,235.7389,70.13072,-52.685,-999.00,-999.00,-999.0,no,no,no,4435260,SPIT,USIABP,ICE-PPR<br>DiskoBay,North
2021-08-23T18:13:58Z,1629742438,2021,18,14,235.7597,235.7597,70.13185,-52.68555,-999.00,-999.00,-999.0,no,no,no,4435260,SPIT,USIABP,ICE-PPR<br>DiskoBay,North
2021-08-23T18:44:03Z,1629744244,2021,18,44,235.7806,235.7806,70.13196,-52.68291,-999.00,-999.00,-999.0,no,no,no,4435260,SPIT,USIABP,ICE-PPR<br>DiskoBay,North
2021-08-23T19:14:00Z,1629746041,2021,19,14,235.8014,235.8014,70.13149,-52.68008,-999.00,-999.00,-999.0,no,no,no,4435260,SPIT,USIABP,ICE-PPR<br>DiskoBay,North
2021-08-23T19:43:58Z,1629747838,2021,19,44,235.8222,235.8222,70.13065,-52.67599,-999.00,-999.00,-999.0,no,no,no,4435260,SPIT,USIABP,ICE-PPR<br>DiskoBay,North
2021-08-23T20:13:03Z,1629749583,2021,20,13,235.8424,235.8424,70.12973,-52.67203,-999.00,-999.00,-999.0,no,no,no,4435260,SPIT,USIABP,ICE-PPR<br>DiskoBay,North
2021-08-23T20:43:00Z,1629751380,2021,20,43,235.8632,235.8632,70.12814,-52.66705,-999.00,-999.00,-999.0,no,no,no,4435260,SPIT,USIABP,ICE-PPR<br>DiskoBay,North
2021-08-23T21:12:57Z,1629753178,2021,21,13,235.884,235.884,70.12667,-52.66336,-999.00,-999.00,-999.0,no,no,no,4435260,SPIT,USIABP,ICE-PPR<br>DiskoBay,North
2021-08-23T21:44:03Z,1629755044,2021,21,44,235.9056,235.9056,70.12567,-52.66034,-999.00,-999.00,-999.0,no,no,no,4435260,SPIT,USIABP,ICE-PPR<br>DiskoBay,North
2021-08-23T22:13:00Z,1629756780,2021,22,13,235.9257,235.9257,70.12475,-52.65853,-999.00,-999.00,-999.0,no,no,no,4435260,SPIT,USIABP,ICE-PPR<br>DiskoBay,North
2021-08-23T22:42:57Z,1629758578,2021,22,43,235.9465,235.9465,70.12446,-52.65887,-999.00,-999.00,-999.0,no,no,no,4435260,SPIT,USIABP,ICE-PPR<br>DiskoBay,North
2021-08-23T23:13:03Z,1629760383,2021,23,13,235.9674,235.9674,70.12506,-52.66049,-999.00,-999.00,-999.0,no,no,no,4435260,SPIT,USIABP,ICE-PPR<br>DiskoBay,North
2021-08-23T23:43:00Z,1629762180,2021,23,43,235.9882,235.9882,70.12633,-52.66264,-999.00,-999.00,-999.0,no,no,no,4435260,SPIT,USIABP,ICE-PPR<br>DiskoBay,North
2021-08-24T00:12:57Z,1629763978,2021,0,13,236.009,236.009,70.12787,-52.66607,-999.00,-999.00,-999.0,no,no,no,4435260,SPIT,USIABP,ICE-PPR<br>DiskoBay,North
2021-08-24T00:43:03Z,1629765783,2021,0,43,236.0299,236.0299,70.1301,-52.67139,-999.00,-999.00,-999.0,no,no,no,4435260,SPIT,USIABP,ICE-PPR<br>DiskoBay,North
2021-08-24T01:13:00Z,1629767580,2021,1,13,236.0507,236.0507,70.13307,-52.67853,-999.00,-999.00,-999.0,no,no,no,4435260,SPIT,USIABP,ICE-PPR<br>DiskoBay,North
2021-08-24T01:42:57Z,1629769378,2021,1,43,236.0715,236.0715,70.13683,-52.68665,-999.00,-999.00,-999.0,no,no,no,4435260,SPIT,USIABP,ICE-PPR<br>DiskoBay,North
2021-08-24T02:13:03Z,1629771183,2021,2,13,236.0924,236.0924,70.14086,-52.6954,-999.00,-999.00,-999.0,no,no,no,4435260,SPIT,USIABP,ICE-PPR<br>DiskoBay,North
2021-08-24T02:43:00Z,1629772980,2021,2,43,236.1132,236.1132,70.14519,-52.70493,-999.00,-999.00,-999.0,no,no,no,4435260,SPIT,USIABP,ICE-PPR<br>DiskoBay,North
2021-08-24T03:42:02Z,1629776523,2021,3,42,236.1542,236.1542,70.15276,-52.72391,-999.00,-999.00,-999.0,no,no,no,4435260,SPIT,USIABP,ICE-PPR<br>DiskoBay,North
2021-08-24T04:12:00Z,1629778320,2021,4,12,236.175,236.175,70.15616,-52.73425,-999.00,-999.00,-999.0,no,no,no,4435260,SPIT,USIABP,ICE-PPR<br>DiskoBay,North
2021-08-24T04:41:57Z,1629780117,2021,4,42,236.1958,236.1958,70.1593,-52.7428,-999.00,-999.00,-999.0,no,no,no,4435260,SPIT,USIABP,ICE-PPR<br>DiskoBay,North
2021-08-24T05:12:02Z,1629781923,2021,5,12,236.2167,236.2167,70.16204,-52.74973,-999.00,-999.00,-999.0,no,no,no,4435260,SPIT,USIABP,ICE-PPR<br>DiskoBay,North
2021-08-24T05:42:00Z,1629783720,2021,5,42,236.2375,236.2375,70.16473,-52.75567,-999.00,-999.00,-999.0,no,no,no,4435260,SPIT,USIABP,ICE-PPR<br>DiskoBay,North
2021-08-24T06:11:57Z,1629785517,2021,6,12,236.2583,236.2583,70.16688,-52.7591,-999.00,-999.00,-999.0,no,no,no,4435260,SPIT,USIABP,ICE-PPR<br>DiskoBay,North
2021-08-24T06:42:02Z,1629787323,2021,6,42,236.2792,236.2792,70.16842,-52.76056,-999.00,-999.00,-999.0,no,no,no,4435260,SPIT,USIABP,ICE-PPR<br>DiskoBay,North
2021-08-24T07:41:57Z,1629790917,2021,7,42,236.3208,236.3208,70.17019,-52.75731,-999.00,-999.00,-999.0,no,no,no,4435260,SPIT,USIABP,ICE-PPR<br>DiskoBay,North
2021-08-24T08:12:02Z,1629792723,2021,8,12,236.3417,236.3417,70.17058,-52.75371,-999.00,-999.00,-999.0,no,no,no,4435260,SPIT,USIABP,ICE-PPR<br>DiskoBay,North
2021-08-24T08:42:00Z,1629794520,2021,8,42,236.3625,236.3625,70.17058,-52.74908,-999.00,-999.00,-999.0,no,no,no,4435260,SPIT,USIABP,ICE-PPR<br>DiskoBay,North
2021-08-24T09:11:57Z,1629796317,2021,9,12,236.3833,236.3833,70.1707,-52.74424,-999.00,-999.00,-999.0,no,no,no,4435260,SPIT,USIABP,ICE-PPR<br>DiskoBay,North
2021-08-24T09:42:02Z,1629798123,2021,9,42,236.4042,236.4042,70.17074,-52.73978,-999.00,-999.00,-999.0,no,no,no,4435260,SPIT,USIABP,ICE-PPR<br>DiskoBay,North
2021-08-24T11:11:02Z,1629803462,2021,11,11,236.466,236.466,70.17073,-52.72754,-999.00,-999.00,-999.0,no,no,no,4435260,SPIT,USIABP,ICE-PPR<br>DiskoBay,North
2021-08-24T11:40:59Z,1629805260,2021,11,41,236.4868,236.4868,70.17055,-52.72617,-999.00,-999.00,-999.0,no,no,no,4435260,SPIT,USIABP,ICE-PPR<br>DiskoBay,North